| time (UTC) | temp C | wind direction | speed KPH | gust KPH | rain 1hr cm | rain 24hr cm | rain mn cm | humidity % | barometer mb |
| 20260504081550 | 3 | 252 | 16.1 | 24.1 | 0.13 | 1.73 | 0.36 | 93 | 978.1 |
| 20260504050013 | 5 | 334 | 11.3 | 19.3 | 0.00 | 1.37 | 0.00 | 84 | 976.0 |
| 20260504044509 | 5 | 353 | 4.8 | 14.5 | 0.00 | 1.37 | 0.00 | 83 | 976.3 |
| 20260504043007 | 5 | 61 | 0.0 | 9.7 | 0.00 | 1.37 | 0.00 | 83 | 976.8 |
| 20260504041504 | 5 | 87 | 11.3 | 20.9 | 0.00 | 1.37 | 0.00 | 82 | 977.3 |
| 20260504040001 | 6 | 44 | 8.0 | 17.7 | 0.00 | 1.37 | 0.00 | 82 | 977.7 |
| 20260504034559 | 6 | 177 | 4.8 | 24.1 | 0.00 | 1.37 | 0.00 | 82 | 978.0 |
| 20260504033058 | 6 | 343 | 11.3 | 27.4 | 0.00 | 1.37 | 0.00 | 82 | 978.3 |
| 20260504031555 | 6 | 246 | 12.9 | 25.7 | 0.00 | 1.37 | 0.00 | 82 | 978.4 |
| 20260504030053 | 6 | 334 | 19.3 | 38.6 | 0.00 | 1.37 | 0.00 | 81 | 978.0 |
| 20260504024608 | 6 | 116 | 35.4 | 70.8 | 0.00 | 1.37 | 1.37 | 82 | 978.3 |
| 20260504023052 | 6 | 74 | 20.9 | 49.9 | 0.00 | 1.37 | 1.37 | 81 | 979.1 |
| 20260504021548 | 6 | 87 | 25.7 | 93.3 | 0.00 | 1.37 | 1.37 | 80 | 980.1 |
| 20260504020048 | 6 | 70 | 54.7 | 103.0 | 0.00 | 1.37 | 1.37 | 79 | 979.5 |
| 20260504014547 | 6 | 94 | 61.2 | 98.2 | 0.03 | 1.37 | 1.37 | 80 | 979.5 |
| 20260504013046 | 6 | 109 | 78.9 | 115.9 | 0.03 | 1.37 | 1.37 | 80 | 979.3 |
| 20260504011545 | 6 | 116 | 85.3 | 117.5 | 0.05 | 1.37 | 1.37 | 80 | 979.6 |
| 20260504010042 | 6 | 127 | 74.0 | 119.1 | 0.08 | 1.37 | 1.37 | 81 | 981.0 |
| 20260504004546 | 6 | 98 | 91.7 | 132.0 | 0.08 | 1.35 | 1.35 | 81 | 980.1 |
| 20260504003046 | 6 | 112 | 88.5 | 127.1 | 0.10 | 1.32 | 1.32 | 81 | 980.6 |
| 20260504001543 | 6 | 97 | 85.3 | 127.1 | 0.10 | 1.32 | 1.32 | 82 | 982.1 |
| 20260504000054 | 6 | 136 | 85.3 | 114.3 | 0.05 | 1.27 | 1.27 | 82 | 982.9 |
| 20260503234531 | 6 | 86 | 59.5 | 115.9 | 0.05 | 1.27 | 1.27 | 82 | 985.6 |
| 20260503233027 | 6 | 77 | 33.8 | 59.5 | 0.10 | 1.22 | 1.22 | 84 | 988.0 |
| 20260503231525 | 5 | 74 | 30.6 | 70.8 | 0.28 | 1.22 | 1.22 | 85 | 989.4 |
| 20260503230026 | 5 | 61 | 35.4 | 62.8 | 0.36 | 1.22 | 1.22 | 87 | 991.3 |
| 20260503224519 | 4 | 36 | 32.2 | 51.5 | 0.43 | 1.22 | 1.22 | 89 | 992.5 |
| 20260503223016 | 3 | 22 | 22.5 | 33.8 | 0.38 | 1.12 | 1.12 | 88 | 993.4 |
| 20260503221512 | 4 | 1 | 27.4 | 32.2 | 0.25 | 0.91 | 0.91 | 87 | 994.2 |
| 20260503220009 | 4 | 360 | 17.7 | 27.4 | 0.28 | 0.86 | 0.86 | 86 | 995.1 |
| 20260503214509 | 4 | 359 | 14.5 | 27.4 | 0.23 | 0.79 | 0.79 | 86 | 995.0 |
| 20260503213010 | 5 | 13 | 14.5 | 48.3 | 0.23 | 0.71 | 0.71 | 85 | 995.3 |
| 20260503211505 | 5 | 55 | 22.5 | 46.7 | 0.25 | 0.64 | 0.64 | 87 | 996.0 |
| 20260503210005 | 5 | 360 | 25.7 | 38.6 | 0.33 | 0.58 | 0.58 | 86 | 996.3 |
| 20260503204502 | 5 | 19 | 27.4 | 35.4 | 0.43 | 0.58 | 0.58 | 85 | 997.0 |
| 20260503203113 | 5 | 10 | 25.7 | 33.8 | 0.41 | 0.51 | 0.51 | 84 | 998.1 |
| 20260503201556 | 5 | 355 | 25.7 | 32.2 | 0.38 | 0.38 | 0.38 | 80 | 998.8 |
| 20260503200052 | 6 | 32 | 22.5 | 40.2 | 0.25 | 0.25 | 0.25 | 78 | 999.7 |
| 20260503194554 | 6 | 25 | 22.5 | 32.2 | 0.15 | 0.15 | 0.15 | 76 | 1000.1 |
| 20260503193051 | 6 | 49 | 17.7 | 45.1 | 0.10 | 0.10 | 0.10 | 73 | 1001.3 |
| 20260503191543 | 7 | 44 | 19.3 | 30.6 | 0.00 | 0.00 | 0.00 | 65 | 1002.4 |
| 20260503190045 | 8 | 73 | 16.1 | 32.2 | 0.00 | 0.00 | 0.00 | 57 | 1003.5 |
| 20260503184539 | 9 | 92 | 17.7 | 46.7 | 0.00 | 0.00 | 0.00 | 49 | 1003.6 |
| 20260503183037 | 10 | 104 | 30.6 | 43.5 | 0.00 | 0.00 | 0.00 | 45 | 1004.3 |
| 20260503181535 | 11 | 126 | 24.1 | 40.2 | 0.00 | 0.00 | 0.00 | 37 | 1004.8 |
| 20260503180034 | 11 | 130 | 25.7 | 46.7 | 0.00 | 0.00 | 0.00 | 34 | 1005.2 |
| 20260503174534 | 11 | 138 | 29.0 | 51.5 | 0.00 | 0.00 | 0.00 | 32 | 1005.1 |
| 20260503173045 | 11 | 93 | 35.4 | 62.8 | 0.00 | 0.00 | 0.00 | 31 | 1005.7 |
| 20260503171535 | 11 | 104 | 29.0 | 49.9 | 0.00 | 0.00 | 0.00 | 35 | 1006.3 |